TimeEST,TemperatureF,Dew PointF,Humidity,Sea Level PressureIn,VisibilityMPH,Wind Direction,Wind SpeedMPH,Gust SpeedMPH,PrecipitationIn,Events,Conditions,WindDirDegrees,DateUTC
12:04 AM,35.6,26.6,70,29.46,10.0,WNW,19.6,31.1,N/A,,Overcast,290,2013-01-31 05:04:00
12:22 AM,33.8,26.6,75,29.47,10.0,West,19.6,31.1,N/A,,Overcast,270,2013-01-31 05:22:00
12:53 AM,34.0,26.1,73,29.50,10.0,West,16.1,29.9,N/A,,Overcast,270,2013-01-31 05:53:00
1:46 AM,33.8,24.8,70,29.54,10.0,West,21.9,33.4,N/A,,Overcast,270,2013-01-31 06:46:00
1:53 AM,33.1,25.0,72,29.55,10.0,West,28.8,41.4,N/A,,Overcast,270,2013-01-31 06:53:00
2:53 AM,32.0,23.0,69,29.59,10.0,West,20.7,31.1,0.00,,Overcast,280,2013-01-31 07:53:00
3:24 AM,30.2,21.2,69,29.60,10.0,West,16.1,27.6,0.00,,Overcast,280,2013-01-31 08:24:00
3:42 AM,30.2,21.2,69,29.61,5.0,West,18.4,28.8,0.00,Snow,Light Snow,270,2013-01-31 08:42:00
3:53 AM,30.0,23.0,75,29.63,4.0,West,19.6,34.5,0.00,Snow,Light Snow,280,2013-01-31 08:53:00
4:53 AM,28.9,21.0,72,29.67,5.0,West,26.5,38.0,0.00,Snow,Light Snow,280,2013-01-31 09:53:00
5:24 AM,28.4,17.6,64,29.67,10.0,West,19.6,38.0,0.00,,Overcast,270,2013-01-31 10:24:00
5:44 AM,28.4,19.4,69,29.68,4.0,West,23.0,31.1,0.00,Snow,Light Snow,260,2013-01-31 10:44:00
5:53 AM,27.0,19.0,72,29.70,2.5,West,20.7,29.9,0.00,Snow,Light Snow,270,2013-01-31 10:53:00
6:07 AM,26.6,19.4,74,29.70,1.8,West,18.4,31.1,0.00,Snow,Light Snow,280,2013-01-31 11:07:00
6:14 AM,26.6,19.4,74,29.70,2.5,West,19.6,32.2,0.00,Snow,Light Snow,280,2013-01-31 11:14:00
6:19 AM,26.6,17.6,69,29.71,6.0,West,19.6,32.2,0.00,Snow,Light Snow,270,2013-01-31 11:19:00
6:53 AM,26.1,17.1,69,29.74,9.0,West,18.4,25.3,0.00,,Overcast,270,2013-01-31 11:53:00
7:09 AM,26.6,17.6,69,29.73,9.0,West,18.4,26.5,0.00,Snow,Light Snow,270,2013-01-31 12:09:00
7:27 AM,24.8,17.6,74,29.74,4.0,West,12.7,23.0,0.00,Snow,Light Snow,280,2013-01-31 12:27:00
7:32 AM,24.8,17.6,74,29.75,1.8,West,20.7,31.1,0.00,Snow,Light Snow,270,2013-01-31 12:32:00
7:42 AM,24.8,17.6,74,29.75,2.5,West,18.4,31.1,0.00,Snow,Light Snow,270,2013-01-31 12:42:00
7:46 AM,24.8,17.6,74,29.76,8.0,West,21.9,31.1,0.00,Snow,Light Snow,270,2013-01-31 12:46:00
7:53 AM,25.0,15.1,66,29.78,9.0,West,21.9,33.4,0.00,,Overcast,280,2013-01-31 12:53:00
8:53 AM,25.0,14.0,63,29.81,9.0,West,17.3,28.8,0.00,,Overcast,270,2013-01-31 13:53:00
9:20 AM,24.8,15.8,69,29.80,2.5,West,15.0,26.5,0.00,Snow,Light Snow,270,2013-01-31 14:20:00
9:22 AM,24.8,17.6,74,29.80,1.8,West,13.8,26.5,0.00,Snow,Light Snow,280,2013-01-31 14:22:00
9:28 AM,24.8,17.6,74,29.81,0.8,West,17.3,27.6,0.00,Snow,Light Snow,280,2013-01-31 14:28:00
9:49 AM,24.8,17.6,74,29.82,1.2,West,17.3,27.6,0.00,Snow,Light Snow,280,2013-01-31 14:49:00
9:53 AM,24.1,18.0,77,29.84,1.8,West,19.6,27.6,0.00,Snow,Light Snow,280,2013-01-31 14:53:00
10:00 AM,24.8,15.8,69,29.82,2.5,West,17.3,27.6,0.00,Snow,Light Snow,280,2013-01-31 15:00:00
10:07 AM,24.8,15.8,69,29.82,4.0,West,13.8,27.6,0.00,Snow,Light Snow,280,2013-01-31 15:07:00
10:34 AM,24.8,15.8,69,29.84,2.5,West,16.1,28.8,0.00,Snow,Light Snow,280,2013-01-31 15:34:00
10:37 AM,24.8,15.8,69,29.84,1.8,West,19.6,28.8,0.00,Snow,Light Snow,280,2013-01-31 15:37:00
10:40 AM,24.8,15.8,69,29.84,0.8,West,16.1,28.8,0.00,Snow,Light Snow,280,2013-01-31 15:40:00
10:53 AM,23.0,17.1,78,29.88,1.5,West,21.9,34.5,0.00,Snow,Light Snow,270,2013-01-31 15:53:00
11:06 AM,24.8,14.0,64,29.87,2.5,West,19.6,36.8,0.00,Snow,Light Snow,270,2013-01-31 16:06:00
11:13 AM,24.8,12.2,59,29.87,9.0,WNW,17.3,36.8,0.00,,Overcast,290,2013-01-31 16:13:00
11:53 AM,24.1,10.9,57,29.91,10.0,West,17.3,34.5,0.00,,Overcast,280,2013-01-31 16:53:00
12:53 PM,25.0,12.9,60,29.89,8.0,West,13.8,26.5,N/A,,Overcast,260,2013-01-31 17:53:00
1:20 PM,24.8,15.8,69,29.87,1.8,West,20.7,31.1,0.00,Snow,Light Snow,270,2013-01-31 18:20:00
1:33 PM,26.6,15.8,64,29.86,3.0,West,18.4,26.5,0.00,Snow,Light Snow,260,2013-01-31 18:33:00
1:53 PM,28.0,17.1,63,29.88,8.0,WSW,15.0,21.9,0.00,Snow,Light Snow,250,2013-01-31 18:53:00
2:53 PM,28.0,14.0,56,29.88,10.0,West,16.1,28.8,0.00,,Overcast,270,2013-01-31 19:53:00
3:53 PM,28.9,15.1,56,29.89,10.0,WSW,23.0,31.1,N/A,,Overcast,250,2013-01-31 20:53:00
4:53 PM,28.0,15.1,58,29.89,10.0,West,19.6,31.1,N/A,,Mostly Cloudy,260,2013-01-31 21:53:00
5:53 PM,28.0,14.0,56,29.90,10.0,West,15.0,24.2,N/A,,Mostly Cloudy,260,2013-01-31 22:53:00
6:53 PM,28.0,17.1,63,29.91,10.0,WNW,16.1,23.0,N/A,,Overcast,290,2013-01-31 23:53:00
7:23 PM,26.6,19.4,74,29.88,2.5,West,10.4,18.4,0.00,Snow,Light Snow,280,2013-02-01 00:23:00
7:27 PM,26.6,19.4,74,29.89,2.0,WNW,8.1,16.1,0.00,Snow,Light Snow,290,2013-02-01 00:27:00
7:29 PM,26.6,21.2,80,29.89,1.8,West,8.1,16.1,0.00,Snow,Light Snow,270,2013-02-01 00:29:00
7:46 PM,26.6,21.2,80,29.89,0.8,West,10.4,-,0.00,Snow,Light Snow,270,2013-02-01 00:46:00
7:53 PM,25.0,21.9,88,29.92,1.0,West,8.1,-,0.00,Snow,Light Snow,270,2013-02-01 00:53:00
7:57 PM,24.8,21.2,86,29.89,2.5,West,8.1,-,0.00,Snow,Light Snow,270,2013-02-01 00:57:00
8:04 PM,24.8,21.2,86,29.88,9.0,West,8.1,-,0.00,Snow,Light Snow,280,2013-02-01 01:04:00
8:11 PM,24.8,21.2,86,29.89,9.0,West,8.1,-,0.00,,Overcast,280,2013-02-01 01:11:00
8:27 PM,24.8,21.2,86,29.89,2.5,West,8.1,-,0.00,Snow,Light Snow,280,2013-02-01 01:27:00
8:29 PM,24.8,21.2,86,29.89,1.8,West,6.9,-,0.00,Snow,Light Snow,280,2013-02-01 01:29:00
8:43 PM,24.8,21.2,86,29.89,2.5,WNW,6.9,-,0.00,Snow,Light Snow,300,2013-02-01 01:43:00
8:51 PM,24.8,21.2,86,29.89,7.0,WNW,8.1,-,0.00,,Overcast,290,2013-02-01 01:51:00
8:53 PM,25.0,21.0,85,29.92,9.0,WNW,9.2,-,0.00,,Overcast,300,2013-02-01 01:53:00
9:13 PM,24.8,21.2,86,29.89,2.5,WNW,6.9,-,0.00,Snow,Light Snow,290,2013-02-01 02:13:00
9:15 PM,24.8,21.2,86,29.89,1.8,WNW,6.9,-,0.01,Snow,Light Snow,300,2013-02-01 02:15:00
9:20 PM,24.8,21.2,86,29.89,0.8,NW,12.7,18.4,0.01,Snow,Light Snow,320,2013-02-01 02:20:00
9:29 PM,24.8,19.4,80,29.90,0.8,WNW,9.2,19.6,0.01,Snow,Light Snow,300,2013-02-01 02:29:00
9:44 PM,24.8,19.4,80,29.90,1.0,NNW,16.1,21.9,0.01,Snow,Light Snow,330,2013-02-01 02:44:00
9:53 PM,23.0,19.0,85,29.92,0.8,NNW,13.8,-,0.01,Snow,Light Snow,330,2013-02-01 02:53:00
10:09 PM,23.0,17.6,80,29.88,2.0,WNW,9.2,18.4,0.00,Snow,Light Snow,290,2013-02-01 03:09:00
10:11 PM,23.0,17.6,80,29.88,3.0,WNW,9.2,18.4,0.00,Snow,Light Snow,290,2013-02-01 03:11:00
10:31 PM,23.0,15.8,74,29.89,9.0,NW,10.4,-,0.00,,Overcast,310,2013-02-01 03:31:00
10:53 PM,23.0,16.0,74,29.92,10.0,NW,9.2,-,0.00,,Overcast,310,2013-02-01 03:53:00
11:16 PM,21.2,15.8,80,29.90,2.0,NW,12.7,-,0.00,Snow,Light Snow,310,2013-02-01 04:16:00
11:21 PM,21.2,15.8,80,29.90,2.5,NW,13.8,19.6,0.00,Snow,Light Snow,310,2013-02-01 04:21:00
11:24 PM,21.2,15.8,80,29.90,3.0,NW,12.7,19.6,0.00,Snow,Light Snow,310,2013-02-01 04:24:00
11:39 PM,21.2,15.8,80,29.91,2.5,NW,10.4,-,0.00,Snow,Light Snow,310,2013-02-01 04:39:00
11:42 PM,21.2,15.8,80,29.91,1.8,NW,12.7,20.7,0.00,Snow,Light Snow,310,2013-02-01 04:42:00
11:53 PM,21.0,15.1,78,29.94,1.5,NW,15.0,21.9,0.00,Snow,Light Snow,320,2013-02-01 04:53:00